Location: Igri�s
(42.2144°N, 0.4320°W)
Time: 03:38:24
(UTC+00:00)

NOSS 3-2 (C) - Visible Passes

Search period start: 25 November 2020 00:00
Search period end: 05 December 2020 00:00
Orbit: 788 x 1424 km, 63.4° (Epoch: 23 November)

Date Brightness Start Highest point End Pass type
(mag) Time Alt. Az. Time Alt. Az. Time Alt. Az.
25 Nov 5.4 03:15:51 29° NNE 03:16:45 29° NE 03:23:44 10° E visible
25 Nov 4.1 05:03:20 23° NW 05:08:37 88° WSW 05:17:16 10° SSE visible
26 Nov 5.9 02:33:03 21° NE 02:33:03 21° NE 02:37:27 10° E visible
26 Nov 4.3 04:20:32 38° NNW 04:23:46 67° NE 04:32:17 10° SE visible
26 Nov 4.9 06:08:00 11° NW 06:14:31 33° WSW 06:21:55 10° S visible
27 Nov 6.5 01:50:19 11° ENE 01:50:19 11° ENE 01:50:56 10° ENE visible
27 Nov 4.7 03:37:49 46° NNE 03:38:47 48° NE 03:46:54 10° ESE visible
27 Nov 4.4 05:25:18 24° NW 05:29:57 49° WSW 05:38:09 10° S visible
27 Nov 5.2 19:16:35 10° S 19:17:43 16° S 19:17:43 16° S visible
28 Nov 5.4 02:55:11 33° ENE 02:55:11 33° ENE 03:01:09 10° ESE visible
28 Nov 4.0 04:42:40 46° NW 04:45:16 72° WSW 04:53:51 10° SSE visible
28 Nov 5.6 06:30:59 10° WNW 06:35:21 16° WSW 06:39:55 10° SW visible
28 Nov 4.7 18:32:54 10° SSE 18:35:15 21° SE 18:35:15 21° SE visible
28 Nov 5.8 20:22:17 10° SW 20:22:46 13° WSW 20:22:46 13° WSW visible
29 Nov 6.2 02:12:37 18° ENE 02:12:37 18° ENE 02:15:03 10° E visible
29 Nov 4.0 04:00:07 79° NNE 04:00:29 82° NE 04:09:06 10° SE visible
29 Nov 5.1 05:47:38 19° WNW 05:50:59 25° WSW 05:57:36 10° SSW visible
29 Nov 4.9 17:50:12 10° SE 17:52:46 15° ESE 17:52:46 15° ESE visible
29 Nov 4.5 19:37:22 10° SW 19:40:16 33° SW 19:40:16 33° SW visible
30 Nov 4.8 03:17:39 47° E 03:17:39 47° E 03:23:58 10° SE visible
30 Nov 4.5 05:05:10 36° W 05:06:29 39° WSW 05:14:15 10° S visible
30 Nov 3.3 18:52:51 10° SSW 18:57:45 59° SSE 18:57:45 59° SSE visible
30 Nov 6.0 20:44:42 10° W 20:45:14 12° W 20:45:14 12° W visible
01 Dec 5.9 02:35:15 23° E 02:35:15 23° E 02:38:26 10° ESE visible
01 Dec 4.3 04:22:46 55° SW 04:22:46 55° SW 04:30:15 10° SSE visible
01 Dec 5.7 06:10:17 10° W 06:11:41 11° WSW 06:13:32 10° WSW visible
01 Dec 3.8 18:08:49 10° S 18:13:49 36° ESE 18:15:09 32° E visible
01 Dec 4.8 19:59:12 10° WSW 20:02:39 32° W 20:02:39 32° W visible
02 Dec 4.9 03:40:26 42° SSE 03:40:26 42° SSE 03:45:47 10° SSE visible
02 Dec 5.4 05:27:56 19° WSW 05:27:56 19° WSW 05:32:56 10° SSW visible
02 Dec 4.5 17:25:25 10° SSE 17:29:29 21° ESE 17:32:30 15° ENE visible
02 Dec 3.6 19:14:04 10° SW 19:19:36 62° NW 19:19:59 61° NNW visible
03 Dec 5.8 02:58:08 23° SE 02:58:08 23° SE 03:00:52 10° SE visible
03 Dec 5.3 04:45:39 25° SW 04:45:39 25° SW 04:50:07 10° SSW visible
03 Dec 3.2 18:29:18 10° SSW 18:34:50 84° SE 18:37:15 39° NE visible
03 Dec 5.5 20:21:57 10° W 20:24:44 20° WNW 20:24:44 20° WNW visible
04 Dec 5.6 04:03:22 23° S 04:03:22 23° S 04:06:30 10° S visible
04 Dec 3.5 17:44:57 10° SSW 17:50:15 50° ESE 17:54:27 19° NE visible
04 Dec 4.7 19:36:15 10° WSW 19:41:24 33° NW 19:41:55 32° NNW visible
